Погода Троицкое

Погода Троицкое : погода сейчас, прогноз погоды и архив. Всё, что Вы хотите узнать о погоде Троицкое!

Хотите узнать прогноз погоды Троицкое? Тогда Вам сюда: Погода Троицкое

Поиск расширенной информации на нашем сайте:

Другие новости

Новости СМИ2

Главная страница сайта

Новости сайта

02.10.2013

Напоминаем, что на нашем новом сайте вы можете получить высокодетализированные прогнозы погоды по пунктам России, СНГ и мира (включающие важные для авиации метеовеличины, такие как направление и скорость ветра, видимость, явления погоды, количество и форма облачности, нижняя и верхняя граница облачности), а также ознакомиться с разнообразными материалами по авиационной метеорологии и подборкой полезных ссылок на эту тему.

Сайт Метеоцентр.Азия посвящён разработке технологий оптимизации авиаметеорологического обслуживания, включая проектирование и перспективное создание нескольких автоматизированных авиаметеорологических систем:
- система выпуска высокодетальных прогностических карт явлений погоды для нижнего воздушного пространства по России и ближнему зарубежью;
- система верификации прогнозов TAF (выпускаемых синоптиками официальных АМСГ РФ и ближнего зарубежья) и AUTOTAF (выпускаемых сайтом Метеоцентр.Азия) - выявление ошибок, онлайн-сопоставление с фактической погодой METAR, автоматическое внесение коррективов в прогнозы при резком отклонении фактической погоды от прогноза, подсчёт оправдываемости прогнозов по элементам и в целом;
- система обработки, анализа и отображения авиаметеорологической информации для применения провайдерами метеорологической информации.


Погода Троицкое - сегодня

Время (UTC), дата Ветер
(°,м/с) 
Видим.   Явления Облачность Т
(°С)
Тd
(°С)
f(%) Тe
(°С)
Pmin
(гПа)
dP
(гПа)
Po
(мм)
O2
(г/м3)
Тmin Tmax R s Состояние
почвы
09 26.03.17 тихо ()   20000 м    6/0 верхняя 
[Ci ing]
+2 -3.1 69 +2  1016.4  0.6  759  304    +4.7       
12 26.03.17 260 (З) 20000 м    6/0 верхняя 
[Ci fib]
-1.7 -3.3 89 -1  1017.1  0.7  760  308           
15 26.03.17 300 (СЗ) 20000 м    10/0 верхняя 
[Ci sp]
-3.9 -4.9 93 -5  1017  0.1  760  311           
18 26.03.17 200 (Ю) 20000 м    8/0 верхняя 
[Ci]
-5.3 -6.1 94 -5  1016.4  -0.6  759  313           
21 26.03.17 310 (СЗ) 20000 м    6/0 верхняя 
[Ci fib]
-7.5 -8.7 91 -7  1016.4  -0.1  759  315  -8         
00 27.03.17 320 (СЗ) 0500 м  туман  ?/?  
-4.7 -5.7 93 -4  1016.9  0.5  759  312           
03 27.03.17 020 (С) 10 км  {туман}  8/4 600 м верхняя 
[Cu med, cong|Ci fib]
+1.9 -3.3 68 +3  1015.7  -1.1  759  304           
06 27.03.17 360 (С) 20000 м  {туман}  6/3 600 м верхняя 
[Cu hum|Ci fib]
+4.4 -8.2 39 +5  1013.9  -1.7  757  301           
09 27.03.17 010 (С) 20000 м    6/3 600 м верхняя 
[Cu hum|Ci fib]
+2 -9.2 43 +3  1013.7  -0.2  757  304    +5.8       
12 27.03.17 300 (СЗ) 20000 м    4/0 верхняя 
[Ci fib]
-1.7 -8.3 61 -1  1014.2  0.4  758  308           
15 27.03.17 250 (З) 20000 м    6/0 верхняя 
[Ci fib]
-5.4 -8.5 79 -5  1013.5  -0.8  757  312           
18 27.03.17 180 (Ю) 20000 м    6/0 верхняя 
[Ci fib]
-4 -7.1 79 -5  1012.8  -0.6  756  310           
21 27.03.17 180 (Ю) 20000 м    8/0 средняя, верхняя 
[Ac As|Ci fib]
-4.7 -6.9 85 -4  1012.6  -0.2  756  311  -6.4      32  равномерный
мокрый или
старый снег
100% 
00 28.03.17 210 (ЮЗ) 20000 м    6/0 средняя 
[Ac trans]
+0.4 -4.9 68 1012.5  0.1  756  305           
03 28.03.17 290 (З) 20000 м    3/0 
[Cu med, cong]
+3.8 -3.1 61 +3  1011.3  -1.1  755  301           
06 28.03.17 310 (СЗ) 20000 м    1/1 600 м 
[Cu med, cong]
+5.1 -3.8 53 +6  1010.7  -0.6  755  299           
09 28.03.17 060 (СВ) 20000 м    8/0 верхняя 
[Ci sp]
+1.8 -3.6 67 +3  1011.6  0.9  756  303    +6.2       
12 28.03.17 тихо ()   20000 м    4/0 верхняя 
[Ci fib]
-0.7 -4.4 76 -1  1012.9  1.2  757  306           
15 28.03.17 100 (В) 20000 м    4/0 верхняя 
[Ci fib]
-5.1   1012.8  0.1  756             
18 28.03.17 110 (В) 20000 м    3/0 верхняя 
[Ci fib]
-5.1 -6.4 91 -5  1013  0.1  757  311           
21 28.03.17 020 (С) 20000 м    4/0 верхняя 
[Ci fib]
-4.6 -5.9 91 -4  1014.1  1.2  757  311  -6.2      30  равномерный
мокрый или
старый снег
100% 
00 29.03.17 040 (СВ) 20000 м    10/0 верхняя 
[Cs]
-1.4 -4.7 78 -1  1015.7  1.6  759  308           
03 29.03.17 050 (СВ) 20000 м    10/0 верхняя 
[Cs]
+2.8 -3.7 62 +4  1016  0.4  759  303           
06 29.03.17 030 (СВ) 20000 м    10/0 верхняя 
[Cs]
+4.2 -6.6 45 +5  1015.9  -0.2  759  302           
09 29.03.17 350 (С) 20000 м    3/3 600 м 
[Sc diur, vesp]
+2.3 -7.7 48 +3  1016.6  0.8  759  304    +5       
Время (UTC), дата Ветер
(°,м/с) 
Видим.   Явления Облачность Т
(°С)
Тd
(°С)
f(%) Тe
(°С)
Pmin
(гПа)
dP
(гПа)
Po
(мм)
O2
(г/м3)
Тmin Tmax R s Состояние
почвы

Для получения пояснительной информации подведите курсор к названию столбца.

ПОГОДА Троицкое - архив

Всё, что Вы хотите узнать о погоде Троицкое - удобно и подробно!

Выберите нужную дату (начиная с 1 января 2015* года) и нажмите кнопку "Найти".
Будут отображены архивные сводки погоды по пункту Троицкое, начиная с указанной даты.


Отображать данные в формате CSV (для использования в таблицах Excel)


Внимание! Наш архив погоды предназначен исключительно для личного некоммерческого использования в познавательных целях. Если Вам необходимы официальные справки о состоянии погоды (для производственных, юридических, коммерческих и т.п. целей), обращайтесь в органы Росгидромета.

*Примечание: данная дата относится к архиву по метеостанциям СССР (Россия, СНГ, Балтия).
Архив по метеостанциям Зарубежной Европы и Азии (кроме Китая) хранится 10 дней, по другим регионам земного шара (Китай, Африка, Америка, Австралия, Океания) - 1 день.

Троицкое - район местоположения метеостанции


Название, широта, долгота, высота метеостанции:
Троицкое 49.4°ш. 136.6°д. 33 м над ур. моря [Российская Федерация]

Дополнительная информация

В oтличие oт бoльшинства пoгoдных сайтoв мы публикуем пoдрoбную метеoинфoрмацию в детальнoм прoфессиoнальнoм фoрмате.

Характеристики температуры и влажнoсти вoздуха измеряются на высoте 2 м в тени вдали oт зданий и деревьев.
Скoрoсть ветра измеряется на высoте 10 м (на урoвне рoста челoвека скoрoсть ветра ниже в 1.5-2 раза). Если метеoстанция нахoдится в гoрoде или в лесу, тo скoрoсть ветра занижена на 2-4 м/с пo сравнению с oткрытым местoм. Скoрoсть ветра над акватoриями крупных рек и oзёр, а также на вершинах хoлмoв на 2-5 м/с выше, чем в oбычных услoвиях.
Атмoсфернoе давление в разных тoчках местнoсти мoжет значительнo oтличаться oт давления на метеoстанции, в зависимoсти oт услoвий рельефа (при пoдъёме на 10 м давление пoнижается примернo на 1 мм рт.ст.).